Regional Weather Roundup
Issued by NWS

Home | Current Version | Previous Version | Graphics & Text | Print | Product List | Glossary On
Versions: 1 2 3 4 5 6 7 8 9 10 11 12 13 14 15 16 17 18 19 20 21 22 23 24 25 26 27 28 29 30 31 32 33 34 35 36 37 38 39 40 41 42 43 44 45 46 47 48 49 50
000
ASUS43 KMKX 311311
RWRWI

WISCONSIN REGIONAL WEATHER ROUNDUP
NATIONAL WEATHER SERVICE MILWAUKEE/SULLIVAN WI
800 AM CDT FRI OCT 31 2014

NOTE: "FAIR" INDICATES FEW OR NO CLOUDS BELOW 12,000 FEET WITH NO
SIGNIFICANT WEATHER AND/OR OBSTRUCTIONS TO VISIBILITY.

WIZ001-002-006>008-014>016-023>028-311400-
NORTHWEST WISCONSIN

CITY           SKY/WX    TMP DP  RH WIND       PRES   REMARKS
SUPERIOR ARPT  CLEAR     28  18  68 N10       30.54R WCI  18
ASHLAND        CLOUDY    31  22  69 N16G22    30.48R WCI  20
HAYWARD        CLEAR     27  21  78 N7        30.46R WCI  19
SIREN          CLOUDY    28  18  64 N17       30.51R WCI  16
CUMBERLAND     CLEAR     28  18  64 N15G23    30.45R WCI  17
RICE LAKE      CLEAR     28  19  70 N10       30.46R WCI  18
CHETEK         CLEAR     28  20  72 N9G18     30.44R WCI  19
LADYSMITH      PTCLDY    28  23  81 N14       30.42R WCI  17
EAU CLAIRE     CLEAR     28  18  66 N9        30.42R WCI  19
MENOMONIE      FAIR      29  18  64 N9        30.44R WCI  20
NEW RICHMOND   MOCLDY    26  17  68 N9        30.49R WCI  17
OSCEOLA        CLOUDY    27  18  70 N7        30.54R WCI  19
$$

WIZ003>005-009-010-017-018-311400-
NORTH CENTRAL WISCONSIN

CITY           SKY/WX    TMP DP  RH WIND       PRES   REMARKS
MANITOWISH WTR FLURRIES  26  24  92 N7        30.35R WCI  18
ARBOR VITAE    CLOUDY    29  25  85 N13G22    30.34R WCI  19
WOODRUFF       CLOUDY    29  25  85 N13G22    30.34R WCI  19
RHINELANDER    CLOUDY    26  21  81 N13G23    30.32R WCI  15
EAGLE RIVER    CLOUDY    27  21  80 N14G23    30.32R WCI  15
LAND O LAKES   CLOUDY    27  23  87 N13G20    30.33R WCI  16
PHILLIPS       MOCLDY    26  21  81 N9        30.36R WCI  17
TOMAHAWK       MOCLDY    27  22  80 N10G21    30.34R WCI  17
MEDFORD        CLOUDY    28  23  81 N13G22    30.34R WCI  17
MERRILL        PTCLDY    28  21  74 N15G25    30.32R WCI  17
$$

WIZ029-030-035-036-043>047-311400-
CENTRAL WISCONSIN

CITY           SKY/WX    TMP DP  RH WIND       PRES   REMARKS
WAUSAU         PTCLDY    29  21  72 N10G18    30.30R WCI  20
MOSINEE        PTCLDY    28  21  74 N14G29    30.31R WCI  17
MARSHFIELD     CLOUDY    31  23  72 N14G24    30.33R WCI  21
STEVENS POINT  CLEAR     28  20  74 N17G26    30.30R WCI  15
WAUPACA        CLEAR     32  24  71 N15G23    30.26R WCI  22
WAUTOMA        PTCLDY    32  22  67 N16G24    30.28R WCI  21
WISC RAPIDS    CLEAR     30  21  69 N15G29    30.32R WCI  19
CAMP DOUGLAS   MOCLDY    32  23  69 NW18G25   30.33R WCI  20
$$

WIZ011>013-019>022-031-037>040-048>050-311400-
NORTHEAST WISCONSIN

CITY           SKY/WX    TMP DP  RH WIND       PRES   REMARKS
ANTIGO         MOCLDY    27  21  79 N16G25    30.28R WCI  15
SHAWANO        CLOUDY    34  22  61 N20G30    30.26R WCI  23
OCONTO         CLOUDY    33  24  68 N18G26    30.23R WCI  22
STURGEON BAY   CLOUDY    36  25  64 N38G47    30.17R WCI  21
GREEN BAY      CLOUDY    34  23  64 N25G32    30.22R WCI  21
MANITOWOC      LGT RAIN  34  29  82 N29G39    30.14R WCI  20
APPLETON       MOCLDY    34  19  55 N22G35    30.21R WCI  22
CLINTONVILLE   MOCLDY    32  23  69 N15G21    30.26R WCI  22
OSHKOSH        PTCLDY    33  22  63 N23G33    30.21R WCI  21
$$

WIZ032>034-041-042-053>061-311400-
SOUTHWEST WISCONSIN

CITY           SKY/WX    TMP DP  RH WIND       PRES   REMARKS
LA CROSSE      PTCLDY    32  20  61 N15       30.40R WCI  22
SPARTA         CLOUDY    32  21  63 N15G21    30.37R WCI  22
VIROQUA        CLOUDY    31  20  66 N16G25    30.34R WCI  19
BOSCOBEL       PTCLDY    34  20  56 N13G22    30.35R WCI  25
PRAIRIE DU CHI PTCLDY    32  18  57 N14       30.36R WCI  22
PLATTEVILLE    CLOUDY    33  22  63 N17G31    30.29R WCI  22
$$

WIZ056-057-062-063-064-067-068-311400-
SOUTH CENTRAL WISCONSIN

CITY           SKY/WX    TMP DP  RH WIND       PRES   REMARKS
REEDSBURG      PTCLDY    32  22  66 N21G31    30.29R WCI  19
BARABOO/DELLS  CLOUDY    32  23  68 N15G22    30.28R WCI  22
LONE ROCK      MOCLDY    38  20  48 N21G30    30.31R WCI  28
MINERAL POINT  CLOUDY    34  21  60 N18G25    30.27R WCI  23
MADISON        PTCLDY    33  23  66 N22G31    30.24R WCI  21
MIDDLETON      CLOUDY    35  23  63 N24G33    30.25R WCI  22
WATERTOWN      CLOUDY    33  28  82 NW16G24   30.19R WCI  22
MONROE         CLOUDY    32  27  80 N25G36    30.22R WCI  19
JANESVILLE     CLOUDY    36  27  69 N22G29    30.18R WCI  24
$$

WIZ051-052-058>065-066-070>072-311400-
SOUTHEAST WISCONSIN

CITY           SKY/WX    TMP DP  RH WIND       PRES   REMARKS
MILWAUKEE      MOCLDY    36  27  69 N15G33    30.11R WCI  27
WAUKESHA       CLOUDY    34  28  80 NW15G21   30.14R WCI  24
MILWAUKEE/TIMM CLOUDY    34  27  75 N25G33    30.13R WCI  21
RACINE         CLOUDY    36  28  73 N24G33    30.12R WCI  24
BURLINGTON     CLOUDY    33  29  84 N14G22    30.14R WCI  24
KENOSHA        MOCLDY    35  30  82 N16G24    30.11R WCI  25
FOND DU LAC    MOCLDY    34  22  61 N20G32    30.21R WCI  23
SHEBOYGAN      CLOUDY    34  27  75 N20G32    30.14R WCI  23
WEST BEND      CLOUDY    34  27  75 N22G31    30.15R WCI  22
JUNEAU         CLOUDY    32  26  79 NW14G23   30.20R WCI  22
$$

LSZ147-162-311400-
LAKE SUPERIOR

STATION/POSITION TIME  TEMP    WIND        PRES    WAVE
                       AIR SEA DIR/SP/G            HT/PER
                 (UTC) (F)     (DEG/KT/KT) (MB)    (FT/S)
W MID LAKE BUOY  1250   33 43  360/ 21/ 25 1031.5R   8/ 8
DEVILS ISLAND    1300   33      20/ 20/ 23 1033.8R
PORT WING        1240   33      10/ 18     1033.2R
SAXON HARBOR     1200   36      20/ 21/ 26 1030.5
$$

LMZ867-665-643>646-311400-
LAKE MICHIGAN

STATION/POSITION TIME  TEMP    WIND        PRES    WAVE
                       AIR SEA DIR/SP/G            HT/PER
                 (UTC) (F)     (DEG/KT/KT) (MB)    (FT/S)
CHAMBERS ISLAND  1200   36     340/ 34/ 43 1021.7R
N MID LAKE BUOY  1250   38 50   10/ 33/ 41 1020.2R  10/ 7
NORTHPORT PIER   1304   36     360/ 30/ 35 1022.7R
KEWAUNEE LAKESHO 1200   33     340/ 18/ 24 1019.0R
SHEBOYGAN LAKESH 1300   36 49  340/ 35/ 43 1021.0R
PORT WASHINGTON  1200   37     330/ 10/ 19 1020.0R
ATWATER BUOY     1300   40     350/ 25/ 31 1020.0R
MILWAUKEE LAKESH 1200   37     330/ 12/ 19   N/A
S MID LAKE BUOY  1250   42 52  330/ 35/ 43 1015.8F  10/ 7
KENOSHA   LAKESH 1300   37     330/ 23/ 29 1019.0R
$$

TC  - TEMPERATURE IN CELSIUS
VSB - VISIBILITY IN STATUTE MILES
WCI - WIND CHILL INDEX
HX  - HEAT INDEX




USA.gov is the U.S. government's official web portal to all federal, state and local government web resources and services.